Location: Banska Bystrica
(48.7330°N, 19.1500°E)
Time: 15:43:43
(UTC+02:00)

ISS - Pass Details

Date: 30 March 2019
Orbit: 408 x 410 km, 51.6° (Epoch: 25 April)

Event Time Altitude Azimuth Distance (km) Brightness Sun altitude
Rises 19:14:38 0° 278° (W) 2,337 1.9 -11.1°
Reaches altitude 10° 19:16:46 10° 284° (WNW) 1,475 0.6 -11.4°
Maximum altitude 19:20:00 48° 1° (N) 543 -3.1 -11.9°
Enters shadow 19:22:26 16° 73° (ENE) 1,170 -2.0 -12.3°
